| time (UTC) | temp F | wind direction | speed MPH | gust MPH | rain 1hr in | rain 24hr in | rain mn in | humidity % | barometer mb |
| 20260831030532 | 86 | 0 | 0.0 | 0.0 | 0.00 | 0.18 | 0.18 | 42 | 1014.1 |
| 20260831030054 | 86 | 0 | 0.0 | 0.0 | 0.00 | 0.18 | 0.18 | 41 | 1014.1 |
| 20260831025531 | 86 | 0 | 0.0 | 0.0 | 0.00 | 0.18 | 0.18 | 40 | 1014.0 |
| 20260831025030 | 86 | 0 | 0.0 | 0.0 | 0.00 | 0.18 | 0.18 | 39 | 1013.9 |
| 20260831024606 | 86 | 0 | 0.0 | 0.0 | 0.00 | 0.18 | 0.18 | 39 | 1013.9 |
| 20260831024030 | 87 | 0 | 0.0 | 0.0 | 0.00 | 0.18 | 0.18 | 39 | 1013.8 |
| 20260831023530 | 87 | 0 | 0.0 | 0.0 | 0.00 | 0.18 | 0.18 | 38 | 1013.7 |
| 20260831023104 | 87 | 0 | 0.0 | 0.0 | 0.00 | 0.18 | 0.18 | 38 | 1013.6 |
| 20260831022529 | 87 | 0 | 0.0 | 0.0 | 0.00 | 0.18 | 0.18 | 38 | 1013.7 |
| 20260831022029 | 87 | 0 | 0.0 | 0.0 | 0.00 | 0.18 | 0.18 | 38 | 1013.5 |
| 20260831021556 | 88 | 0 | 0.0 | 0.0 | 0.00 | 0.18 | 0.18 | 37 | 1013.5 |
| 20260831021030 | 88 | 0 | 0.0 | 0.0 | 0.00 | 0.18 | 0.18 | 37 | 1013.4 |
| 20260831020530 | 88 | 0 | 0.0 | 0.0 | 0.00 | 0.18 | 0.18 | 37 | 1013.4 |
| 20260831020058 | 88 | 0 | 0.0 | 0.0 | 0.00 | 0.18 | 0.18 | 36 | 1013.4 |
| 20260831015530 | 89 | 0 | 0.0 | 0.0 | 0.00 | 0.18 | 0.18 | 36 | 1013.3 |
| 20260831015030 | 89 | 0 | 0.0 | 0.0 | 0.00 | 0.18 | 0.18 | 35 | 1013.2 |
| 20260831014553 | 90 | 0 | 0.0 | 0.0 | 0.00 | 0.18 | 0.18 | 35 | 1013.1 |
| 20260831014029 | 90 | 0 | 0.0 | 0.0 | 0.00 | 0.18 | 0.18 | 35 | 1013.1 |
| 20260831013529 | 90 | 0 | 0.0 | 0.0 | 0.00 | 0.18 | 0.18 | 34 | 1013.1 |
| 20260831013106 | 91 | 0 | 0.0 | 0.0 | 0.00 | 0.18 | 0.18 | 34 | 1013.1 |
| 20260831012530 | 91 | 0 | 0.0 | 0.0 | 0.00 | 0.18 | 0.18 | 33 | 1013.0 |
| 20260831012030 | 92 | 0 | 0.0 | 0.0 | 0.00 | 0.18 | 0.18 | 32 | 1013.0 |
| 20260831011559 | 92 | 0 | 0.0 | 0.0 | 0.00 | 0.18 | 0.18 | 32 | 1012.9 |
| 20260831011030 | 93 | 0 | 0.0 | 0.0 | 0.00 | 0.18 | 0.18 | 32 | 1012.8 |
| 20260831010531 | 93 | 0 | 0.0 | 0.0 | 0.00 | 0.18 | 0.18 | 31 | 1012.8 |
| 20260831010055 | 93 | 0 | 0.0 | 0.0 | 0.00 | 0.18 | 0.18 | 31 | 1012.7 |
| 20260831005530 | 94 | 0 | 0.0 | 0.0 | 0.00 | 0.18 | 0.18 | 30 | 1012.7 |
| 20260831005028 | 94 | 0 | 0.0 | 0.0 | 0.00 | 0.18 | 0.18 | 30 | 1012.7 |
| 20260831004552 | 95 | 0 | 0.0 | 0.0 | 0.00 | 0.18 | 0.18 | 29 | 1012.6 |
| 20260831004030 | 95 | 0 | 0.0 | 0.0 | 0.00 | 0.18 | 0.18 | 29 | 1012.7 |
| 20260831003530 | 96 | 0 | 0.0 | 0.0 | 0.00 | 0.18 | 0.18 | 28 | 1012.6 |
| 20260831003057 | 96 | 0 | 0.0 | 0.0 | 0.00 | 0.18 | 0.18 | 28 | 1012.7 |
| 20260831002529 | 96 | 0 | 0.0 | 0.0 | 0.00 | 0.18 | 0.18 | 27 | 1012.6 |
| 20260831002029 | 97 | 0 | 0.0 | 0.0 | 0.00 | 0.18 | 0.18 | 27 | 1012.6 |
| 20260831001553 | 97 | 0 | 0.0 | 0.0 | 0.00 | 0.18 | 0.18 | 27 | 1012.7 |
| 20260831001029 | 98 | 0 | 0.0 | 0.0 | 0.00 | 0.18 | 0.18 | 26 | 1012.7 |
| 20260831000529 | 98 | 0 | 0.0 | 0.0 | 0.00 | 0.18 | 0.18 | 26 | 1012.7 |
| 20260831000053 | 99 | 0 | 0.0 | 0.0 | 0.00 | 0.18 | 0.18 | 25 | 1012.7 |
| 20260830235528 | 99 | 0 | 0.0 | 0.0 | 0.00 | 0.18 | 0.18 | 25 | 1012.8 |
| 20260830235027 | 100 | 0 | 0.0 | 0.0 | 0.00 | 0.18 | 0.18 | 24 | 1012.8 |
| 20260830234559 | 100 | 0 | 0.0 | 0.0 | 0.00 | 0.18 | 0.18 | 24 | 1012.8 |
| 20260830234029 | 101 | 0 | 0.0 | 0.0 | 0.00 | 0.18 | 0.18 | 23 | 1012.8 |
| 20260830233530 | 101 | 0 | 0.0 | 0.0 | 0.00 | 0.18 | 0.18 | 23 | 1012.7 |
| 20260830233055 | 101 | 0 | 0.0 | 0.0 | 0.00 | 0.18 | 0.18 | 23 | 1012.9 |
| 20260830232530 | 102 | 0 | 0.0 | 0.0 | 0.00 | 0.18 | 0.18 | 23 | 1012.9 |
| 20260830232031 | 102 | 0 | 0.0 | 0.0 | 0.00 | 0.18 | 0.18 | 23 | 1012.8 |
| 20260830231601 | 102 | 0 | 0.0 | 1.0 | 0.00 | 0.18 | 0.18 | 20 | 1012.8 |
| 20260830231030 | 102 | 0 | 0.0 | 1.0 | 0.00 | 0.18 | 0.18 | 22 | 1012.9 |
| 20260830230529 | 102 | 0 | 0.0 | 1.0 | 0.00 | 0.18 | 0.18 | 19 | 1012.8 |
| 20260830230052 | 102 | 0 | 0.0 | 0.0 | 0.00 | 0.18 | 0.18 | 22 | 1012.9 |
| 20260830225531 | 101 | 0 | 0.0 | 2.0 | 0.00 | 0.18 | 0.18 | 22 | 1012.9 |
| 20260830225030 | 101 | 0 | 0.0 | 2.0 | 0.00 | 0.18 | 0.18 | 21 | 1013.0 |
| 20260830224558 | 101 | 0 | 0.0 | 1.0 | 0.00 | 0.18 | 0.18 | 22 | 1013.0 |
| 20260830224031 | 101 | 0 | 0.0 | 1.0 | 0.00 | 0.18 | 0.18 | 22 | 1013.0 |
| 20260830223530 | 101 | 0 | 0.0 | 1.0 | 0.00 | 0.18 | 0.18 | 21 | 1013.0 |
| 20260830223055 | 101 | 0 | 0.0 | 0.0 | 0.00 | 0.18 | 0.18 | 21 | 1013.1 |
| 20260830222529 | 102 | 0 | 0.0 | 1.0 | 0.00 | 0.18 | 0.18 | 21 | 1013.1 |
| 20260830222030 | 103 | 0 | 0.0 | 1.0 | 0.00 | 0.18 | 0.18 | 20 | 1013.1 |
| 20260830221610 | 103 | 0 | 0.0 | 1.0 | 0.00 | 0.18 | 0.18 | 20 | 1013.2 |
| 20260830221029 | 103 | 0 | 0.0 | 0.0 | 0.00 | 0.18 | 0.18 | 22 | 1013.3 |
| 20260830220530 | 102 | 0 | 0.0 | 0.0 | 0.00 | 0.18 | 0.18 | 24 | 1013.2 |
| 20260830220057 | 101 | 0 | 0.0 | 0.0 | 0.00 | 0.18 | 0.18 | 23 | 1013.3 |
| 20260830215530 | 101 | 0 | 0.0 | 2.0 | 0.00 | 0.18 | 0.18 | 21 | 1013.2 |
| 20260830215034 | 101 | 0 | 0.0 | 2.0 | 0.00 | 0.18 | 0.18 | 21 | 1013.2 |
| 20260830214608 | 102 | 0 | 0.0 | 2.0 | 0.00 | 0.18 | 0.18 | 21 | 1013.3 |
| 20260830214030 | 102 | 0 | 0.0 | 0.0 | 0.00 | 0.18 | 0.18 | 21 | 1013.3 |
| 20260830213529 | 103 | 0 | 0.0 | 0.0 | 0.00 | 0.18 | 0.18 | 20 | 1013.3 |
| 20260830213056 | 103 | 0 | 0.0 | 1.0 | 0.00 | 0.18 | 0.18 | 20 | 1013.4 |
| 20260830212531 | 104 | 0 | 0.0 | 1.0 | 0.00 | 0.18 | 0.18 | 21 | 1013.5 |
| 20260830212031 | 103 | 0 | 0.0 | 1.0 | 0.00 | 0.18 | 0.18 | 19 | 1013.4 |
| 20260830211556 | 103 | 0 | 0.0 | 1.0 | 0.00 | 0.18 | 0.18 | 23 | 1013.5 |
| 20260830211030 | 102 | 0 | 0.0 | 1.0 | 0.00 | 0.18 | 0.18 | 23 | 1013.5 |
| 20260830210530 | 103 | 0 | 0.0 | 3.0 | 0.00 | 0.18 | 0.18 | 18 | 1013.5 |
| 20260830210107 | 103 | 0 | 0.0 | 4.0 | 0.00 | 0.18 | 0.18 | 18 | 1013.7 |
| 20260830205530 | 104 | 0 | 0.0 | 4.0 | 0.00 | 0.18 | 0.18 | 17 | 1013.7 |
| 20260830205029 | 104 | 16 | 0.0 | 1.0 | 0.00 | 0.18 | 0.18 | 18 | 1013.8 |
| 20260830204557 | 104 | 0 | 0.0 | 1.0 | 0.00 | 0.18 | 0.18 | 21 | 1013.9 |
| 20260830204029 | 103 | 0 | 0.0 | 1.0 | 0.00 | 0.18 | 0.18 | 21 | 1013.9 |
| 20260830203530 | 103 | 0 | 0.0 | 3.0 | 0.00 | 0.18 | 0.18 | 21 | 1014.0 |
| 20260830203055 | 104 | 0 | 0.0 | 3.0 | 0.00 | 0.18 | 0.18 | 19 | 1014.1 |
| 20260830202530 | 105 | 0 | 0.0 | 3.0 | 0.00 | 0.18 | 0.18 | 18 | 1014.0 |
| 20260830202034 | 104 | 0 | 0.0 | 2.0 | 0.00 | 0.18 | 0.18 | 22 | 1014.1 |
| 20260830201553 | 103 | 0 | 0.0 | 2.0 | 0.00 | 0.18 | 0.18 | 19 | 1014.2 |
| 20260830201029 | 102 | 0 | 0.0 | 1.0 | 0.00 | 0.18 | 0.18 | 24 | 1014.1 |
| 20260830200529 | 102 | 0 | 0.0 | 2.0 | 0.00 | 0.18 | 0.18 | 22 | 1014.3 |
| 20260830200052 | 102 | 0 | 0.0 | 2.0 | 0.00 | 0.18 | 0.18 | 21 | 1014.4 |
| 20260830195533 | 102 | 0 | 0.0 | 2.0 | 0.00 | 0.18 | 0.18 | 20 | 1014.5 |
| 20260830195030 | 102 | 0 | 0.0 | 2.0 | 0.00 | 0.18 | 0.18 | 21 | 1014.6 |
| 20260830194604 | 102 | 16 | 0.0 | 1.0 | 0.00 | 0.18 | 0.18 | 21 | 1014.5 |
| 20260830194031 | 102 | 0 | 0.0 | 2.0 | 0.00 | 0.18 | 0.18 | 20 | 1014.6 |
| 20260830193530 | 103 | 0 | 0.0 | 2.0 | 0.00 | 0.18 | 0.18 | 20 | 1014.7 |
| 20260830193054 | 102 | 0 | 0.0 | 4.0 | 0.00 | 0.18 | 0.18 | 23 | 1014.7 |
| 20260830192529 | 102 | 0 | 0.0 | 4.0 | 0.00 | 0.18 | 0.18 | 21 | 1014.8 |
| 20260830192029 | 102 | 0 | 0.0 | 4.0 | 0.00 | 0.18 | 0.18 | 20 | 1014.9 |
| 20260830191555 | 103 | 0 | 0.0 | 4.0 | 0.00 | 0.18 | 0.18 | 19 | 1014.9 |
| 20260830191029 | 103 | 16 | 0.0 | 1.0 | 0.00 | 0.18 | 0.18 | 23 | 1014.9 |
| 20260830190529 | 103 | 0 | 0.0 | 1.0 | 0.00 | 0.18 | 0.18 | 24 | 1015.1 |
| 20260830190055 | 102 | 0 | 0.0 | 1.0 | 0.00 | 0.18 | 0.18 | 21 | 1015.2 |
| 20260830185530 | 102 | 0 | 0.0 | 3.0 | 0.00 | 0.18 | 0.18 | 23 | 1015.2 |
| 20260830185029 | 101 | 0 | 0.0 | 3.0 | 0.00 | 0.18 | 0.18 | 22 | 1015.2 |
| 20260830184554 | 101 | 0 | 0.0 | 3.0 | 0.00 | 0.18 | 0.18 | 21 | 1015.4 |
| 20260830184029 | 101 | 16 | 0.0 | 2.0 | 0.00 | 0.18 | 0.18 | 22 | 1015.4 |
| 20260830183529 | 100 | 0 | 0.0 | 2.0 | 0.00 | 0.18 | 0.18 | 23 | 1015.6 |
| 20260830183056 | 99 | 0 | 0.0 | 2.0 | 0.00 | 0.18 | 0.18 | 25 | 1015.6 |
| 20260830182533 | 99 | 0 | 0.0 | 3.0 | 0.00 | 0.18 | 0.18 | 26 | 1015.6 |
| 20260830182033 | 99 | 0 | 0.0 | 3.0 | 0.00 | 0.18 | 0.18 | 25 | 1015.8 |
| 20260830181553 | 99 | 0 | 0.0 | 3.0 | 0.00 | 0.18 | 0.18 | 26 | 1015.8 |
| 20260830181029 | 99 | 0 | 0.0 | 4.0 | 0.00 | 0.18 | 0.18 | 24 | 1015.9 |
| 20260830180529 | 99 | 0 | 0.0 | 4.0 | 0.00 | 0.18 | 0.18 | 23 | 1016.1 |
| 20260830180100 | 100 | 0 | 0.0 | 3.0 | 0.00 | 0.18 | 0.18 | 25 | 1016.1 |
| 20260830175530 | 99 | 0 | 0.0 | 1.0 | 0.00 | 0.18 | 0.18 | 29 | 1016.3 |
| 20260830175029 | 99 | 0 | 0.0 | 3.0 | 0.00 | 0.18 | 0.18 | 25 | 1016.4 |
| 20260830174612 | 98 | 0 | 0.0 | 4.0 | 0.00 | 0.18 | 0.18 | 25 | 1016.5 |
| 20260830174029 | 98 | 0 | 0.0 | 4.0 | 0.00 | 0.18 | 0.18 | 26 | 1016.4 |
| 20260830173528 | 99 | 16 | 0.0 | 4.0 | 0.00 | 0.18 | 0.18 | 26 | 1016.5 |
| 20260830173059 | 98 | 0 | 0.0 | 2.0 | 0.00 | 0.18 | 0.18 | 28 | 1016.7 |
| 20260830172530 | 98 | 0 | 0.0 | 2.0 | 0.00 | 0.18 | 0.18 | 29 | 1016.8 |
| 20260830172030 | 98 | 0 | 0.0 | 2.0 | 0.00 | 0.18 | 0.18 | 29 | 1017.0 |
| 20260830171555 | 97 | 0 | 0.0 | 2.0 | 0.00 | 0.18 | 0.18 | 30 | 1017.0 |
| 20260830171030 | 97 | 0 | 0.0 | 2.0 | 0.00 | 0.18 | 0.18 | 30 | 1017.0 |
| 20260830170530 | 97 | 0 | 0.0 | 1.0 | 0.00 | 0.18 | 0.18 | 28 | 1017.1 |
| 20260830170053 | 96 | 0 | 0.0 | 1.0 | 0.00 | 0.18 | 0.18 | 32 | 1017.2 |
| 20260830165530 | 96 | 0 | 0.0 | 1.0 | 0.00 | 0.18 | 0.18 | 29 | 1017.3 |
| 20260830165029 | 95 | 0 | 0.0 | 1.0 | 0.00 | 0.18 | 0.18 | 34 | 1017.2 |
| 20260830164602 | 95 | 0 | 0.0 | 1.0 | 0.00 | 0.18 | 0.18 | 33 | 1017.3 |
| 20260830164030 | 94 | 0 | 0.0 | 1.0 | 0.00 | 0.18 | 0.18 | 31 | 1017.4 |
| 20260830163530 | 94 | 0 | 0.0 | 1.0 | 0.00 | 0.18 | 0.18 | 33 | 1017.4 |
| 20260830163053 | 93 | 0 | 0.0 | 2.0 | 0.00 | 0.18 | 0.18 | 35 | 1017.4 |
| 20260830162530 | 93 | 0 | 0.0 | 2.0 | 0.00 | 0.18 | 0.18 | 33 | 1017.5 |
| 20260830162029 | 93 | 0 | 0.0 | 1.0 | 0.00 | 0.18 | 0.18 | 35 | 1017.5 |
| 20260830161557 | 92 | 0 | 0.0 | 1.0 | 0.00 | 0.18 | 0.18 | 36 | 1017.5 |
| 20260830161029 | 92 | 0 | 0.0 | 1.0 | 0.00 | 0.18 | 0.18 | 37 | 1017.5 |
| 20260830160529 | 91 | 0 | 0.0 | 1.0 | 0.00 | 0.18 | 0.18 | 37 | 1017.4 |
| 20260830155530 | 91 | 0 | 0.0 | 1.0 | 0.00 | 0.18 | 0.18 | 38 | 1017.4 |
| 20260830155030 | 90 | 0 | 0.0 | 1.0 | 0.00 | 0.18 | 0.18 | 41 | 1017.5 |
| 20260830154555 | 90 | 0 | 0.0 | 1.0 | 0.00 | 0.18 | 0.18 | 40 | 1017.4 |
| 20260830154028 | 89 | 0 | 0.0 | 1.0 | 0.00 | 0.18 | 0.18 | 40 | 1017.3 |
| 20260830153529 | 89 | 0 | 0.0 | 1.0 | 0.00 | 0.18 | 0.18 | 43 | 1017.4 |
| 20260830153056 | 89 | 0 | 0.0 | 1.0 | 0.00 | 0.18 | 0.18 | 43 | 1017.4 |
| 20260830152530 | 88 | 0 | 0.0 | 1.0 | 0.00 | 0.18 | 0.18 | 45 | 1017.3 |
| 20260830152030 | 88 | 0 | 0.0 | 1.0 | 0.00 | 0.18 | 0.18 | 45 | 1017.4 |
| 20260830151559 | 87 | 0 | 0.0 | 0.0 | 0.00 | 0.18 | 0.18 | 48 | 1017.4 |
| 20260830151033 | 87 | 0 | 0.0 | 0.0 | 0.00 | 0.18 | 0.18 | 49 | 1017.4 |
| 20260830150530 | 86 | 0 | 0.0 | 0.0 | 0.00 | 0.18 | 0.18 | 51 | 1017.4 |
| 20260830145532 | 85 | 0 | 0.0 | 0.0 | 0.00 | 0.18 | 0.18 | 51 | 1017.4 |
| 20260830145031 | 85 | 0 | 0.0 | 0.0 | 0.00 | 0.18 | 0.18 | 53 | 1017.5 |
| 20260830144602 | 84 | 0 | 0.0 | 0.0 | 0.00 | 0.18 | 0.18 | 54 | 1017.4 |
| 20260830144030 | 83 | 0 | 0.0 | 0.0 | 0.00 | 0.18 | 0.18 | 56 | 1017.4 |
| 20260830143531 | 83 | 0 | 0.0 | 0.0 | 0.00 | 0.18 | 0.18 | 57 | 1017.4 |
| 20260830143058 | 82 | 0 | 0.0 | 0.0 | 0.00 | 0.18 | 0.18 | 59 | 1017.4 |
| 20260830142529 | 80 | 0 | 0.0 | 0.0 | 0.00 | 0.18 | 0.18 | 60 | 1017.3 |
| 20260830142030 | 79 | 0 | 0.0 | 0.0 | 0.00 | 0.18 | 0.18 | 61 | 1017.3 |
| 20260830141603 | 78 | 0 | 0.0 | 0.0 | 0.00 | 0.18 | 0.18 | 62 | 1017.3 |
| 20260830141027 | 77 | 0 | 0.0 | 0.0 | 0.00 | 0.18 | 0.18 | 64 | 1017.3 |
| 20260830140529 | 76 | 0 | 0.0 | 0.0 | 0.00 | 0.18 | 0.18 | 67 | 1017.3 |
| 20260830140104 | 76 | 0 | 0.0 | 0.0 | 0.00 | 0.18 | 0.18 | 70 | 1017.3 |
| 20260830135533 | 76 | 0 | 0.0 | 0.0 | 0.00 | 0.18 | 0.18 | 72 | 1017.1 |
| 20260830135031 | 76 | 0 | 0.0 | 0.0 | 0.01 | 0.18 | 0.18 | 74 | 1017.1 |
| 20260830134556 | 75 | 0 | 0.0 | 0.0 | 0.01 | 0.18 | 0.18 | 75 | 1017.3 |
| 20260830134030 | 75 | 0 | 0.0 | 0.0 | 0.01 | 0.18 | 0.18 | 75 | 1017.1 |
| 20260830133531 | 75 | 0 | 0.0 | 0.0 | 0.01 | 0.18 | 0.18 | 75 | 1017.1 |
| 20260830133105 | 75 | 0 | 0.0 | 0.0 | 0.01 | 0.18 | 0.18 | 75 | 1017.1 |
| 20260830132533 | 75 | 0 | 0.0 | 0.0 | 0.01 | 0.18 | 0.18 | 75 | 1017.0 |
| 20260830132030 | 74 | 0 | 0.0 | 0.0 | 0.01 | 0.18 | 0.18 | 75 | 1017.0 |
| 20260830131601 | 74 | 0 | 0.0 | 0.0 | 0.01 | 0.18 | 0.18 | 75 | 1016.9 |
| 20260830131029 | 74 | 0 | 0.0 | 0.0 | 0.01 | 0.18 | 0.18 | 74 | 1016.8 |
| 20260830130528 | 74 | 0 | 0.0 | 0.0 | 0.02 | 0.18 | 0.18 | 73 | 1016.8 |
| 20260830130101 | 74 | 0 | 0.0 | 0.0 | 0.04 | 0.18 | 0.18 | 72 | 1016.8 |
| 20260830125531 | 73 | 0 | 0.0 | 0.0 | 0.06 | 0.18 | 0.18 | 70 | 1016.7 |
| 20260830125030 | 73 | 0 | 0.0 | 0.0 | 0.06 | 0.17 | 0.17 | 69 | 1016.7 |
| 20260830124615 | 73 | 0 | 0.0 | 0.0 | 0.08 | 0.17 | 0.17 | 68 | 1016.7 |
| 20260830124033 | 73 | 0 | 0.0 | 0.0 | 0.09 | 0.17 | 0.17 | 67 | 1016.6 |
| 20260830123533 | 73 | 0 | 0.0 | 0.0 | 0.11 | 0.17 | 0.17 | 67 | 1016.5 |
| 20260830123103 | 73 | 0 | 0.0 | 0.0 | 0.13 | 0.17 | 0.17 | 67 | 1016.4 |
| 20260830122530 | 73 | 0 | 0.0 | 0.0 | 0.15 | 0.17 | 0.17 | 66 | 1016.3 |
| 20260830122032 | 73 | 0 | 0.0 | 0.0 | 0.17 | 0.17 | 0.17 | 66 | 1016.2 |
| 20260830121547 | 74 | 0 | 0.0 | 0.0 | 0.17 | 0.17 | 0.17 | 66 | 1016.1 |
| 20260830121029 | 74 | 0 | 0.0 | 0.0 | 0.17 | 0.17 | 0.17 | 65 | 1016.1 |
| 20260830120529 | 74 | 0 | 0.0 | 0.0 | 0.16 | 0.16 | 0.16 | 65 | 1016.0 |
| 20260830120057 | 75 | 0 | 0.0 | 0.0 | 0.14 | 0.14 | 0.14 | 65 | 1016.0 |
| 20260830115529 | 75 | 0 | 0.0 | 1.0 | 0.12 | 0.12 | 0.12 | 65 | 1016.0 |
| 20260830115030 | 75 | 0 | 0.0 | 1.0 | 0.11 | 0.11 | 0.11 | 65 | 1015.9 |
| 20260830114601 | 76 | 0 | 0.0 | 0.0 | 0.09 | 0.09 | 0.09 | 65 | 1015.8 |
| 20260830114030 | 76 | 0 | 0.0 | 0.0 | 0.07 | 0.07 | 0.07 | 64 | 1015.8 |
| 20260830113530 | 77 | 0 | 0.0 | 0.0 | 0.06 | 0.06 | 0.06 | 64 | 1015.9 |
| 20260830113054 | 77 | 0 | 0.0 | 0.0 | 0.04 | 0.04 | 0.04 | 63 | 1015.8 |
| 20260830112530 | 77 | 0 | 0.0 | 0.0 | 0.02 | 0.02 | 0.02 | 63 | 1015.9 |
| 20260830112030 | 77 | 0 | 0.0 | 0.0 | 0.00 | 0.00 | 0.00 | 62 | 1015.7 |
| 20260830111603 | 77 | 0 | 0.0 | 0.0 | 0.00 | 0.00 | 0.00 | 61 | 1015.6 |
| 20260830111031 | 77 | 0 | 0.0 | 0.0 | 0.00 | 0.00 | 0.00 | 61 | 1015.3 |
| 20260830110530 | 77 | 0 | 0.0 | 0.0 | 0.00 | 0.00 | 0.00 | 61 | 1015.3 |
| 20260830110105 | 77 | 0 | 0.0 | 0.0 | 0.00 | 0.00 | 0.00 | 61 | 1015.3 |
| 20260830105529 | 77 | 0 | 0.0 | 0.0 | 0.00 | 0.00 | 0.00 | 60 | 1015.4 |
| 20260830105029 | 77 | 0 | 0.0 | 0.0 | 0.00 | 0.00 | 0.00 | 60 | 1015.4 |
| 20260830104603 | 77 | 0 | 0.0 | 0.0 | 0.00 | 0.00 | 0.00 | 60 | 1015.4 |
| 20260830104029 | 77 | 0 | 0.0 | 0.0 | 0.00 | 0.00 | 0.00 | 60 | 1015.4 |
| 20260830103533 | 78 | 0 | 0.0 | 0.0 | 0.00 | 0.00 | 0.00 | 58 | 1015.4 |
| 20260830103054 | 78 | 0 | 0.0 | 0.0 | 0.00 | 0.00 | 0.00 | 58 | 1015.4 |
| 20260830102529 | 78 | 0 | 0.0 | 0.0 | 0.00 | 0.00 | 0.00 | 57 | 1015.4 |
| 20260830102030 | 78 | 0 | 0.0 | 0.0 | 0.00 | 0.00 | 0.00 | 57 | 1015.3 |
| 20260830101613 | 79 | 0 | 0.0 | 0.0 | 0.00 | 0.00 | 0.00 | 57 | 1015.3 |
| 20260830101029 | 79 | 0 | 0.0 | 0.0 | 0.00 | 0.00 | 0.00 | 57 | 1015.3 |
| 20260830100530 | 79 | 0 | 0.0 | 0.0 | 0.00 | 0.00 | 0.00 | 57 | 1015.3 |
| 20260830095530 | 79 | 0 | 0.0 | 0.0 | 0.00 | 0.00 | 0.00 | 56 | 1015.3 |
| 20260830095030 | 79 | 0 | 0.0 | 0.0 | 0.00 | 0.00 | 0.00 | 56 | 1015.3 |
| 20260830094555 | 79 | 0 | 0.0 | 0.0 | 0.00 | 0.00 | 0.00 | 55 | 1015.2 |
| 20260830094030 | 79 | 0 | 0.0 | 0.0 | 0.00 | 0.00 | 0.00 | 55 | 1015.1 |
| 20260830093529 | 79 | 0 | 0.0 | 0.0 | 0.00 | 0.00 | 0.00 | 55 | 1015.1 |
| 20260830093100 | 79 | 0 | 0.0 | 0.0 | 0.00 | 0.00 | 0.00 | 55 | 1015.3 |
| 20260830092530 | 79 | 0 | 0.0 | 0.0 | 0.00 | 0.00 | 0.00 | 55 | 1015.2 |
| 20260830092031 | 79 | 0 | 0.0 | 0.0 | 0.00 | 0.00 | 0.00 | 54 | 1015.1 |
| 20260830091558 | 79 | 0 | 0.0 | 0.0 | 0.00 | 0.00 | 0.00 | 54 | 1015.2 |
| 20260830091030 | 79 | 0 | 0.0 | 0.0 | 0.00 | 0.00 | 0.00 | 54 | 1015.1 |
| 20260830090530 | 79 | 0 | 0.0 | 0.0 | 0.00 | 0.00 | 0.00 | 53 | 1015.1 |
| 20260830090122 | 80 | 0 | 0.0 | 0.0 | 0.00 | 0.00 | 0.00 | 53 | 1015.0 |
| 20260830085530 | 80 | 0 | 0.0 | 0.0 | 0.00 | 0.00 | 0.00 | 53 | 1015.0 |
| 20260830085029 | 80 | 0 | 0.0 | 0.0 | 0.00 | 0.00 | 0.00 | 53 | 1015.1 |
| 20260830084553 | 80 | 0 | 0.0 | 0.0 | 0.00 | 0.00 | 0.00 | 53 | 1015.1 |
| 20260830084029 | 80 | 0 | 0.0 | 0.0 | 0.00 | 0.00 | 0.00 | 52 | 1015.1 |
| 20260830083530 | 80 | 0 | 0.0 | 0.0 | 0.00 | 0.00 | 0.00 | 52 | 1015.0 |
| 20260830083125 | 80 | 0 | 0.0 | 0.0 | 0.00 | 0.00 | 0.00 | 52 | 1015.1 |
| 20260830082530 | 80 | 0 | 0.0 | 0.0 | 0.00 | 0.00 | 0.00 | 52 | 1015.1 |
| 20260830082030 | 80 | 0 | 0.0 | 0.0 | 0.00 | 0.00 | 0.00 | 52 | 1015.0 |
| 20260830081552 | 80 | 0 | 0.0 | 0.0 | 0.00 | 0.00 | 0.00 | 52 | 1015.0 |
| 20260830081029 | 80 | 0 | 0.0 | 0.0 | 0.00 | 0.00 | 0.00 | 51 | 1015.1 |
| 20260830080530 | 80 | 0 | 0.0 | 0.0 | 0.00 | 0.00 | 0.00 | 51 | 1015.2 |
| 20260830080053 | 80 | 0 | 0.0 | 0.0 | 0.00 | 0.00 | 0.00 | 51 | 1015.2 |
| 20260830075530 | 80 | 0 | 0.0 | 0.0 | 0.00 | 0.00 | 0.00 | 51 | 1015.3 |
| 20260830075030 | 80 | 0 | 0.0 | 0.0 | 0.00 | 0.00 | 0.00 | 51 | 1015.2 |
| 20260830074558 | 80 | 0 | 0.0 | 0.0 | 0.00 | 0.00 | 0.00 | 51 | 1015.3 |
| 20260830074032 | 80 | 0 | 0.0 | 0.0 | 0.00 | 0.00 | 0.00 | 50 | 1015.2 |
| 20260830073531 | 80 | 0 | 0.0 | 0.0 | 0.00 | 0.00 | 0.00 | 50 | 1015.3 |
| 20260830073108 | 80 | 0 | 0.0 | 0.0 | 0.00 | 0.00 | 0.00 | 50 | 1015.1 |
| 20260830072530 | 80 | 0 | 0.0 | 0.0 | 0.00 | 0.00 | 0.00 | 50 | 1015.2 |
| 20260830072030 | 80 | 0 | 0.0 | 0.0 | 0.00 | 0.00 | 0.00 | 49 | 1015.2 |
| 20260830071551 | 80 | 0 | 0.0 | 0.0 | 0.00 | 0.00 | 0.00 | 49 | 1015.2 |
| 20260830071030 | 80 | 0 | 0.0 | 0.0 | 0.00 | 0.00 | 0.00 | 49 | 1015.2 |
| 20260830070530 | 80 | 0 | 0.0 | 0.0 | 0.00 | 0.00 | 0.00 | 49 | 1015.3 |
| 20260830070109 | 80 | 0 | 0.0 | 0.0 | 0.00 | 0.00 | 0.00 | 50 | 1015.3 |
| 20260830065530 | 79 | 0 | 0.0 | 0.0 | 0.00 | 0.00 | 0.00 | 50 | 1015.2 |
| 20260830065029 | 79 | 0 | 0.0 | 0.0 | 0.00 | 0.00 | 0.00 | 50 | 1015.2 |
| 20260830064555 | 79 | 0 | 0.0 | 0.0 | 0.00 | 0.00 | 0.00 | 51 | 1015.2 |
| 20260830064030 | 79 | 0 | 0.0 | 0.0 | 0.00 | 0.00 | 0.00 | 50 | 1015.3 |
| 20260830063530 | 79 | 0 | 0.0 | 0.0 | 0.00 | 0.00 | 0.00 | 49 | 1015.3 |
| 20260830063059 | 80 | 0 | 0.0 | 0.0 | 0.00 | 0.00 | 0.00 | 49 | 1015.3 |
| 20260830062529 | 80 | 0 | 0.0 | 0.0 | 0.00 | 0.00 | 0.00 | 49 | 1015.2 |
| 20260830062029 | 80 | 0 | 0.0 | 0.0 | 0.00 | 0.00 | 0.00 | 49 | 1015.2 |
| 20260830061548 | 80 | 0 | 0.0 | 0.0 | 0.00 | 0.00 | 0.00 | 49 | 1015.2 |
| 20260830061031 | 80 | 0 | 0.0 | 0.0 | 0.00 | 0.00 | 0.00 | 48 | 1015.2 |
| 20260830060530 | 80 | 0 | 0.0 | 0.0 | 0.00 | 0.00 | 0.00 | 48 | 1015.2 |
| 20260830060052 | 80 | 0 | 0.0 | 0.0 | 0.00 | 0.00 | 0.00 | 48 | 1015.3 |
| 20260830055530 | 80 | 0 | 0.0 | 0.0 | 0.00 | 0.00 | 0.00 | 47 | 1015.3 |
| 20260830055030 | 81 | 0 | 0.0 | 0.0 | 0.00 | 0.00 | 0.00 | 47 | 1015.3 |
| 20260830054607 | 81 | 0 | 0.0 | 0.0 | 0.00 | 0.00 | 0.00 | 47 | 1015.3 |
| 20260830054029 | 81 | 0 | 0.0 | 0.0 | 0.00 | 0.00 | 0.00 | 47 | 1015.3 |
| 20260830053529 | 81 | 0 | 0.0 | 0.0 | 0.00 | 0.00 | 0.00 | 47 | 1015.4 |
| 20260830053053 | 81 | 0 | 0.0 | 0.0 | 0.00 | 0.00 | 0.00 | 47 | 1015.2 |
| 20260830052530 | 82 | 0 | 0.0 | 0.0 | 0.00 | 0.00 | 0.00 | 46 | 1015.3 |
| 20260830052030 | 82 | 0 | 0.0 | 0.0 | 0.00 | 0.00 | 0.00 | 46 | 1015.3 |
| 20260830051552 | 82 | 0 | 0.0 | 0.0 | 0.00 | 0.00 | 0.00 | 45 | 1015.4 |
| 20260830051030 | 82 | 0 | 0.0 | 0.0 | 0.00 | 0.00 | 0.00 | 45 | 1015.2 |
| 20260830050530 | 83 | 0 | 0.0 | 0.0 | 0.00 | 0.00 | 0.00 | 45 | 1015.2 |
| 20260830050101 | 83 | 0 | 0.0 | 0.0 | 0.00 | 0.00 | 0.00 | 45 | 1015.3 |
| 20260830045532 | 83 | 0 | 0.0 | 0.0 | 0.00 | 0.00 | 0.00 | 45 | 1015.2 |
| 20260830045032 | 84 | 0 | 0.0 | 0.0 | 0.00 | 0.00 | 0.00 | 44 | 1015.3 |
| 20260830044604 | 84 | 0 | 0.0 | 0.0 | 0.00 | 0.00 | 0.00 | 42 | 1015.3 |
| 20260830044031 | 84 | 0 | 0.0 | 0.0 | 0.00 | 0.00 | 0.00 | 41 | 1015.3 |
| 20260830043530 | 84 | 0 | 0.0 | 0.0 | 0.00 | 0.00 | 0.00 | 41 | 1015.3 |
| 20260830043058 | 84 | 0 | 0.0 | 0.0 | 0.00 | 0.00 | 0.00 | 40 | 1015.3 |
| 20260830042531 | 84 | 0 | 0.0 | 0.0 | 0.00 | 0.00 | 0.00 | 40 | 1015.3 |
| 20260830042030 | 84 | 0 | 0.0 | 0.0 | 0.00 | 0.00 | 0.00 | 40 | 1015.1 |
| 20260830041607 | 85 | 0 | 0.0 | 0.0 | 0.00 | 0.00 | 0.00 | 40 | 1015.2 |
| 20260830041030 | 85 | 0 | 0.0 | 0.0 | 0.00 | 0.00 | 0.00 | 40 | 1015.2 |
| 20260830040530 | 85 | 0 | 0.0 | 0.0 | 0.00 | 0.00 | 0.00 | 40 | 1015.1 |
| 20260830040112 | 85 | 0 | 0.0 | 0.0 | 0.00 | 0.00 | 0.00 | 40 | 1015.1 |
| 20260830035530 | 85 | 0 | 0.0 | 0.0 | 0.00 | 0.00 | 0.00 | 40 | 1015.1 |
| 20260830035031 | 86 | 0 | 0.0 | 0.0 | 0.00 | 0.00 | 0.00 | 39 | 1015.1 |
| 20260830034557 | 86 | 0 | 0.0 | 0.0 | 0.00 | 0.00 | 0.00 | 39 | 1015.1 |
| 20260830034030 | 86 | 0 | 0.0 | 0.0 | 0.00 | 0.00 | 0.00 | 38 | 1015.1 |
| 20260830033530 | 86 | 0 | 0.0 | 0.0 | 0.00 | 0.00 | 0.00 | 38 | 1015.1 |
| 20260830033054 | 86 | 0 | 0.0 | 0.0 | 0.00 | 0.00 | 0.00 | 38 | 1015.0 |
| 20260830032533 | 87 | 0 | 0.0 | 0.0 | 0.00 | 0.00 | 0.00 | 37 | 1014.9 |
| 20260830032030 | 87 | 0 | 0.0 | 0.0 | 0.00 | 0.00 | 0.00 | 37 | 1014.9 |
| 20260830031622 | 87 | 0 | 0.0 | 0.0 | 0.00 | 0.00 | 0.00 | 37 | 1014.9 |
| 20260830031032 | 87 | 0 | 0.0 | 0.0 | 0.00 | 0.00 | 0.00 | 37 | 1014.9 |